{"data":{"norad_id":61907,"epoch":"2026-05-25T04:31:14.320416Z","epoch_age_seconds":59091,"freshness":"FRESH","line1":"1 61907U 24205P   26145.18836019  .00003753  00000+0  19318-3 0  9992","line2":"2 61907  97.4131 218.1426 0013286 133.8974 226.3358 15.16948648 84844","mean_motion":15.16948648,"eccentricity":0.0013286,"inclination_deg":97.4131,"raan_deg":218.1426,"arg_perigee_deg":133.8974,"mean_anomaly_deg":226.3358,"bstar":0.00019318,"rev_number":8484,"period_min":94.927405874849,"perigee_km":505.91065182079,"apogee_km":524.2272787117,"semimajor_km":6893.2059652662,"source":"CELESTRAK","updated_at":"2026-05-25T13:38:02.628876Z"}}